Location: Cuiry
(49.3858°N, 3.7708°E)
Time: 22:51:44
(UTC+00:00)

OPS 6432 - Pass Details

Date: 12 January 2026
Orbit: 421 x 1450 km, 63.3° (Epoch: 7 February)

Event Time Altitude Azimuth Distance (km) Brightness Sun altitude
Rises 17:37:48 0° 319° (NW) 2,597 8.6 -13.8°
Reaches altitude 10° 17:40:07 10° 325° (NW) 1,622 7.4 -14.1°
Maximum altitude 17:43:31 50° 42° (NE) 558 4.5 -14.7°
Enters shadow 17:44:57 28° 105° (ESE) 837 5.3 -14.9°
